Date String (YYYY-MM-DD hh:mm:ss) UTC,Instrument flags,Ambient pressure (hPa),Sample flow (lpm),Bypass flow (lpm),Sample temperature (°C),Ambient temperature (°C),ASC tube jacket temperature (°C),LED temperature (°C),Box temperature (°C),Sample RH (%),Span deviation,Mass concentration (μg/m³),Mass concentration (μg/m³),Mass concentration (μg/m³)
DateTimeUTC,F1_M11,P_M11,Q1_M11,Q2_M11,T1_M11,T2_M11,T3_M11,T4_M11,T5_M11,U1_M11,ZSPAN_M11,X0_M11,X2_M11,X1_M11
2022-01-15 15:00:00,,0833.7,5.01,0.00,21.4,21.4,00.0,30.6,23.1,08.3,0000.0,0001.78,0001.35,0001.20
2022-01-15 15:01:00,,0833.7,5.00,0.00,21.6,22.5,00.0,30.6,23.4,08.3,0000.0,0001.72,0001.33,0001.19
2022-01-15 15:02:00,,0833.7,4.99,0.00,21.8,23.1,00.0,30.7,23.8,08.4,0000.0,0001.66,0001.33,0001.19
2022-01-15 15:03:00,,0833.7,5.00,0.00,21.9,22.8,00.0,30.7,23.7,08.5,0000.0,0001.70,0001.33,0001.19
2022-01-15 15:04:00,,0833.7,5.02,0.00,21.8,22.4,00.0,30.7,23.6,08.4,0000.0,0001.81,0001.34,0001.18
2022-01-15 15:05:00,,0833.7,4.99,0.00,21.8,22.1,00.0,30.7,23.5,08.3,0000.0,0001.78,0001.32,0001.17
2022-01-15 15:06:00,,0833.7,5.00,0.00,21.8,21.8,00.0,30.7,23.4,08.3,0000.0,0001.79,0001.31,0001.15
2022-01-15 15:07:00,,0833.8,5.01,0.00,21.7,21.6,00.0,30.7,23.4,08.4,0000.0,0001.80,0001.29,0001.15
2022-01-15 15:08:00,,0834.0,5.00,0.00,21.7,21.4,00.0,30.7,23.3,08.4,0000.0,0001.81,0001.29,0001.15
2022-01-15 15:09:00,,0834.0,5.00,0.00,21.7,21.3,00.0,30.7,23.2,08.5,0000.0,0001.79,0001.28,0001.16
2022-01-15 15:10:00,,0834.1,5.00,0.00,21.6,21.2,00.0,30.7,23.2,08.5,0000.0,0001.77,0001.27,0001.16
2022-01-15 15:11:00,,0834.0,5.00,0.00,21.5,21.0,00.0,30.7,23.1,08.5,0000.0,0001.77,0001.28,0001.17
2022-01-15 15:12:00,,0834.1,5.00,0.00,21.5,21.0,00.0,30.7,23.0,08.6,0000.0,0001.78,0001.29,0001.17
2022-01-15 15:13:00,,0834.1,5.00,0.00,21.5,20.9,00.0,30.6,23.0,08.8,0000.0,0001.82,0001.31,0001.17
2022-01-15 15:14:00,,0834.2,5.00,0.00,21.5,20.9,00.0,30.6,23.1,08.8,0000.0,0001.76,0001.31,0001.17
2022-01-15 15:15:00,,0834.2,5.00,0.00,21.5,21.2,00.0,30.6,23.1,08.7,0000.0,0001.64,0001.29,0001.18
2022-01-15 15:16:00,,0834.2,5.02,0.00,21.6,22.2,00.0,30.6,23.5,08.8,0000.0,0001.62,0001.29,0001.19
2022-01-15 15:17:00,,0834.1,5.00,0.00,21.8,23.0,00.0,30.7,23.8,08.8,0000.0,0001.60,0001.29,0001.19
2022-01-15 15:18:00,,0834.0,4.99,0.00,21.9,22.8,00.0,30.7,23.8,08.8,0000.0,0001.57,0001.27,0001.18
2022-01-15 15:19:00,,0833.9,5.01,0.00,21.9,22.5,00.0,30.8,23.8,08.9,0000.0,0001.64,0001.29,0001.17
2022-01-15 15:20:00,,0833.9,4.99,0.00,21.9,22.3,00.0,30.8,23.8,08.8,0000.0,0001.66,0001.31,0001.17
2022-01-15 15:21:00,,0833.9,5.00,0.00,22.0,22.1,00.0,30.8,23.7,09.0,0000.0,0001.66,0001.31,0001.17
2022-01-15 15:22:00,,0833.9,5.01,0.00,22.0,22.0,00.0,30.8,23.7,08.9,0000.0,0001.67,0001.31,0001.17
2022-01-15 15:23:00,,0833.9,5.00,0.00,22.0,21.9,00.0,30.8,23.7,08.9,0000.0,0001.68,0001.32,0001.18
2022-01-15 15:24:00,,0834.0,5.00,0.00,22.0,21.8,00.0,30.8,23.6,08.9,0000.0,0001.64,0001.31,0001.19
2022-01-15 15:25:00,,0834.1,5.00,0.00,21.9,21.7,00.0,30.8,23.6,09.1,0000.0,0001.66,0001.32,0001.19
2022-01-15 15:26:00,,0834.1,5.00,0.00,21.9,21.6,00.0,30.8,23.6,08.9,0000.0,0002.47,0001.35,0001.21
2022-01-15 15:27:00,,0834.0,5.01,0.00,21.9,21.6,00.0,30.9,23.6,09.1,0000.0,0003.36,0001.37,0001.22
2022-01-15 15:28:00,,0834.0,4.99,0.00,21.9,21.6,00.0,30.9,23.6,09.3,0000.0,0003.38,0001.39,0001.22
2022-01-15 15:29:00,,0834.1,5.00,0.00,21.9,21.5,00.0,30.9,23.6,09.3,0000.0,0003.35,0001.39,0001.23
2022-01-15 15:30:00,,0834.1,5.00,0.00,21.9,21.5,00.0,30.9,23.6,09.0,0000.0,0003.26,0001.36,0001.24
2022-01-15 15:31:00,,0834.0,5.00,0.00,21.9,21.5,00.0,30.9,23.6,09.0,0000.0,0003.31,0001.36,0001.25
2022-01-15 15:32:00,,0833.8,5.00,0.00,21.9,21.4,00.0,30.9,23.6,09.0,0000.0,0003.33,0001.37,0001.26
2022-01-15 15:33:00,,0833.8,5.00,0.00,21.9,21.4,00.0,30.9,23.6,09.2,0000.0,0003.39,0001.39,0001.26
2022-01-15 15:34:00,,0833.8,5.01,0.00,21.9,21.4,00.0,30.9,23.6,09.1,0000.0,0003.37,0001.39,0001.26
2022-01-15 15:35:00,,0834.0,4.99,0.00,21.9,21.4,00.0,30.9,23.6,09.0,0000.0,0003.63,0001.38,0001.26
2022-01-15 15:36:00,,0834.0,5.00,0.00,21.9,21.4,00.0,30.9,23.5,08.9,0000.0,0003.67,0001.38,0001.27
2022-01-15 15:37:00,,0834.1,5.01,0.00,21.9,21.3,00.0,30.9,23.5,09.0,0000.0,0002.93,0001.36,0001.26
2022-01-15 15:38:00,,0834.1,5.01,0.00,21.8,21.3,00.0,30.9,23.5,09.0,0000.0,0001.98,0001.35,0001.25
2022-01-15 15:39:00,,0834.1,4.99,0.00,21.9,22.1,00.0,30.9,23.7,09.0,0000.0,0001.98,0001.34,0001.25
2022-01-15 15:40:00,,0834.1,5.02,0.00,22.1,23.2,00.0,30.9,24.0,09.0,0000.0,0002.01,0001.36,0001.26
2022-01-15 15:41:00,,0834.1,5.00,0.00,22.2,23.4,00.0,31.0,24.2,09.0,0000.0,0002.07,0001.38,0001.26
2022-01-15 15:42:00,,0834.1,4.99,0.00,22.3,23.1,00.0,31.0,24.2,09.0,0000.0,0002.02,0001.38,0001.26
2022-01-15 15:43:00,,0834.0,5.01,0.00,22.3,22.8,00.0,31.0,24.1,08.9,0000.0,0002.00,0001.37,0001.25
2022-01-15 15:44:00,,0834.0,4.99,0.00,22.3,22.6,00.0,31.1,24.0,08.9,0000.0,0001.98,0001.37,0001.25
2022-01-15 15:45:00,,0834.0,5.01,0.00,22.2,22.3,00.0,31.1,24.0,08.7,0000.0,0002.06,0001.38,0001.25
2022-01-15 15:46:00,,0833.9,5.01,0.00,22.2,22.2,00.0,31.1,23.9,08.9,0000.0,0001.81,0001.40,0001.25
2022-01-15 15:47:00,,0834.0,5.00,0.00,22.2,22.1,00.0,31.1,23.9,08.8,0000.0,0001.82,0001.41,0001.24
2022-01-15 15:48:00,,0834.0,5.00,0.00,22.2,21.9,00.0,31.1,23.8,08.8,0000.0,0002.00,0001.44,0001.25
2022-01-15 15:49:00,,0834.1,4.99,0.00,22.2,21.8,00.0,31.1,23.8,08.8,0000.0,0002.02,0001.43,0001.24
2022-01-15 15:50:00,,0834.0,5.01,0.00,22.1,21.7,00.0,31.1,23.8,08.9,0000.0,0002.03,0001.43,0001.23
2022-01-15 15:51:00,,0834.1,5.00,0.00,22.1,21.6,00.0,31.1,23.7,08.7,0000.0,0002.03,0001.42,0001.23
2022-01-15 15:52:00,,0834.0,5.00,0.00,22.1,21.5,00.0,31.1,23.7,08.7,0000.0,0001.97,0001.40,0001.23
2022-01-15 15:53:00,,0834.0,5.01,0.00,22.0,21.5,00.0,31.1,23.6,08.8,0000.0,0001.94,0001.39,0001.23
2022-01-15 15:54:00,,0834.0,4.98,0.00,22.0,21.4,00.0,31.1,23.6,08.9,0000.0,0001.93,0001.39,0001.23
2022-01-15 15:55:00,,0834.0,5.01,0.00,22.0,21.4,00.0,31.1,23.6,08.9,0000.0,0002.05,0001.39,0001.22
2022-01-15 15:56:00,,0834.0,4.99,0.00,21.9,21.3,00.0,31.0,23.6,08.9,0000.0,0002.12,0001.40,0001.22
2022-01-15 15:57:00,,0833.9,4.99,0.00,21.9,21.3,00.0,31.0,23.5,09.0,0000.0,0002.10,0001.40,0001.22
2022-01-15 15:58:00,,0833.9,5.00,0.00,21.9,21.2,00.0,31.0,23.5,09.0,0000.0,0002.05,0001.38,0001.22
2022-01-15 15:59:00,,0834.0,5.01,0.00,21.8,21.2,00.0,31.0,23.4,09.0,0000.0,0001.95,0001.38,0001.21
